{"data":{"norad_id":68431,"intl_designator":"2026-067R","name":"DISCO-2","alt_names":[],"object_type":"PAYLOAD","status":"ACTIVE","operator":null,"country":"DEN","launch_date":"2026-03-30","launch_site_code":"AFWTR","launch_vehicle":null,"mission":null,"orbit_class":"UNKNOWN","rcs_meters":null,"size_class":null,"mass_kg":null,"dimensions":null,"purposes":[],"wikipedia_slug":null,"has_3d_model":false,"image_url":null,"decayed_at":null,"tle_current":{"epoch":"2026-05-24T20:39:59.682816Z","epoch_age_seconds":97481,"freshness":"FRESH","line1":"1 68431U 26067R   26144.86110744  .00006565  00000+0  31998-3 0  9995","line2":"2 68431  97.4588 103.7383 0004373  82.7637 277.4095 15.18659766  8400","mean_motion":15.18659766,"eccentricity":0.0004373,"inclination_deg":97.4588,"raan_deg":103.7383,"arg_perigee_deg":82.7637,"mean_anomaly_deg":277.4095,"bstar":0.00031998,"rev_number":840,"period_min":94.820448413723,"perigee_km":506.87800812642,"apogee_km":512.90227666516,"semimajor_km":6888.0271423958,"source":"CELESTRAK","updated_at":"2026-05-25T13:38:07.814747Z"}}}